Home > Weather > Nairobi > Past weeks

Flag for Kenya Weather for the Past 2 Weeks in Nairobi, Kenya

Now
66 °F

Passing clouds.


Feels Like: 66 °F
Forecast: 63 / 74 °F
Wind: 14 mph from East

Location: Kenyatta Airport

Current Time: Apr 29, 2016 at 11:27:00 PM

Latest Report: Apr 29, 2016 at 10:00 PM


Visibility: N/A

Pressure: 30.18 "Hg (24.80 "Hg at 1680m altitude)

Humidity: 94%

Dew Point: 64 °F

Location of NairobiLocation

Historic Weather in Nairobi — Graph

°F

Nairobi Temperature Yesterday

Maximum temperature yesterday: 77 °F (at 2:00 PM)
Minimum temperature yesterday: 63 °F (at 4:00 AM)
Average temperature yesterday: 67 °F

High & Low Weather Summary for the Past Weeks

 TemperatureHumidityPressure
High82 °F (Apr 16, 2:00 PM)100% (Apr 18, 8:00 AM)30.27 "Hg (Apr 18, 8:00 AM)
Low63 °F (Apr 15, 7:00 AM)40% (Apr 16, 3:00 PM)30.01 "Hg (Apr 27, 4:00 PM)
Average70 °F79%30.14 "Hg
* Reported Apr 14 10:00 PM — Apr 29 10:00 PM, Nairobi, Weather by CustomWeather, © 2016

Note: Actual official high and low records may vary slightly from our data, if they occured in-between our weather recording intervals... More about our weather records

Advertising

Nairobi Weather History for the Previous 24 Hours

Scroll right to see more
 ConditionsComfort  
Time TempWeatherWind HumidityBarometerVisibility
10:00 PM
Fri, Apr 29
66 °FPassing clouds.14 mph94%30.18 "HgN/A
9:00 PM68 °FPartly cloudy.12 mph88%30.12 "HgN/A
8:00 PM68 °FPartly cloudy.12 mph94%30.09 "HgN/A
7:00 PM68 °FPartly cloudy.7 mph94%30.09 "HgN/A
6:00 PM68 °FThunderstorms. Partly sunny.5 mph94%30.09 "HgN/A
5:00 PM66 °FRain showers. Partly sunny.12 mph94%30.07 "Hg5 mi
4:00 PM72 °FLight rain. Partly sunny.12 mph78%30.04 "HgN/A
3:00 PM73 °FPartly sunny.14 mph69%30.07 "HgN/A
2:00 PM77 °FPartly sunny.9 mph57%30.07 "HgN/A
1:00 PM75 °FScattered clouds.7 mph65%30.09 "HgN/A
12:00 PM73 °FPartly sunny.9 mph69%30.15 "HgN/A
11:00 AM72 °FBroken clouds.5 mph78%30.15 "HgN/A
10:00 AM68 °FPartly sunny.5 mph83%30.18 "HgN/A
9:30 AM68 °FBroken clouds.6 mph83%30.18 "HgN/A
9:00 AM64 °FBroken clouds.5 mph94%30.18 "HgN/A
8:30 AM64 °FBroken clouds.5 mph94%30.18 "HgN/A
8:00 AM64 °FBroken clouds.5 mph94%30.15 "HgN/A
7:00 AM63 °FScattered clouds.3 mph100%30.15 "HgN/A
6:00 AM63 °FPartly cloudy.2 mph100%30.12 "HgN/A
5:00 AM64 °FLight rain. Passing clouds.3 mph94%30.15 "HgN/A
4:00 AM64 °FLight rain. Passing clouds.3 mph94%30.12 "HgN/A
3:00 AM64 °FPassing clouds.5 mph94%30.12 "HgN/A
2:00 AM64 °FPassing clouds.3 mph94%30.12 "HgN/A
1:00 AM64 °FPartly cloudy.3 mph94%30.12 "HgN/A
12:00 AM64 °FPassing clouds.5 mph94%30.15 "HgN/A
11:00 PM
Thu, Apr 28
66 °FPartly cloudy.3 mph88%30.15 "HgN/A
Weather by CustomWeather, © 2016

See weather overviewHow to use our weather pages